TimeEST,TemperatureF,Dew PointF,Humidity,Sea Level PressureIn,VisibilityMPH,Wind Direction,Wind SpeedMPH,Gust SpeedMPH,PrecipitationIn,Events,Conditions,WindDirDegrees,DateUTC
12:53 AM,28.9,23.0,78,30.41,10.0,Calm,Calm,-,N/A,,Clear,0,2013-03-09 05:53:00
1:53 AM,30.0,23.0,75,30.41,10.0,Calm,Calm,-,N/A,,Clear,0,2013-03-09 06:53:00
2:53 AM,28.0,21.9,78,30.40,10.0,Calm,Calm,-,N/A,,Clear,0,2013-03-09 07:53:00
3:53 AM,27.0,23.0,85,30.37,9.0,Calm,Calm,-,N/A,,Clear,0,2013-03-09 08:53:00
4:53 AM,27.0,21.0,78,30.37,10.0,Calm,Calm,-,N/A,,Clear,0,2013-03-09 09:53:00
5:53 AM,24.1,19.9,84,30.38,9.0,Calm,Calm,-,N/A,,Clear,0,2013-03-09 10:53:00
6:53 AM,26.1,21.0,81,30.39,7.0,Calm,Calm,-,N/A,,Clear,0,2013-03-09 11:53:00
7:53 AM,28.9,24.1,82,30.38,6.0,Calm,Calm,-,N/A,,Haze,0,2013-03-09 12:53:00
8:53 AM,34.0,28.9,82,30.38,6.0,SE,4.6,-,N/A,,Haze,140,2013-03-09 13:53:00
9:53 AM,39.0,28.0,65,30.37,10.0,SSE,10.4,-,N/A,,Clear,150,2013-03-09 14:53:00
10:53 AM,41.0,28.0,60,30.35,10.0,SSE,12.7,-,N/A,,Clear,160,2013-03-09 15:53:00
11:53 AM,42.1,28.9,60,30.32,10.0,SE,11.5,-,N/A,,Clear,140,2013-03-09 16:53:00
12:53 PM,43.0,28.0,56,30.31,10.0,SSE,13.8,-,N/A,,Clear,150,2013-03-09 17:53:00
1:53 PM,43.0,28.0,56,30.27,10.0,SE,13.8,-,N/A,,Clear,130,2013-03-09 18:53:00
2:53 PM,45.0,30.0,56,30.23,10.0,SSE,10.4,-,N/A,,Clear,150,2013-03-09 19:53:00
3:53 PM,45.0,30.0,56,30.20,10.0,ESE,11.5,-,N/A,,Mostly Cloudy,120,2013-03-09 20:53:00
4:53 PM,44.1,30.0,58,30.18,10.0,SE,8.1,-,N/A,,Partly Cloudy,130,2013-03-09 21:53:00
5:53 PM,42.1,28.9,60,30.17,10.0,SE,9.2,-,N/A,,Clear,140,2013-03-09 22:53:00
6:53 PM,41.0,28.9,62,30.15,10.0,SE,8.1,-,N/A,,Mostly Cloudy,130,2013-03-09 23:53:00
7:53 PM,41.0,30.0,65,30.12,10.0,ESE,11.5,-,N/A,,Overcast,120,2013-03-10 00:53:00
8:53 PM,39.9,30.0,68,30.12,10.0,ESE,6.9,-,0.00,Rain,Light Rain,120,2013-03-10 01:53:00
9:53 PM,39.0,30.0,70,30.11,10.0,East,4.6,-,0.00,,Mostly Cloudy,100,2013-03-10 02:53:00
10:53 PM,39.0,30.0,70,30.08,10.0,ESE,5.8,-,N/A,,Mostly Cloudy,110,2013-03-10 03:53:00
11:53 PM,37.0,30.0,76,30.06,10.0,ESE,3.5,-,N/A,,Clear,110,2013-03-10 04:53:00